PPR-pyyntö

Malmin lentopaikalla toimimista varten tarvitaan ennakkolupa. Pyydä ennakkolupa tästä.

Laskukierrosvaraus

Tee ensin PPR-pyyntö, sitten vasta laskukierrosvaraus. Hinta 10 € / 20 min.

Aerodrome Info

Updated 09 JAN 2022 21:20 LT

  • ALL Runways closed. See NOTAM for details.

Contact duty officer at +358 20 7545 129 for more information.

Remember to close your flight plan: ACC tel. +358 3 386 5172

Weather


Helsinki Malmi lentokenttä
AWS ILHF 170800Z AUTO 36012G23KT 9999 -SN BKN010 BKN027 M01/M02 Q0982=



Helsinki-Malmin lentoasema

Tervetuloa Helsinki-Malmin lentokentälle

Malmin lentokenttäyhdistys ry toimii Suomen vilkkaimman yleisilmailukentän, Helsinki-Malmin operaattorina. Yhdistyksen toiminnassa ovat mukana kentällä toimivat yhteisöt sekä suuri joukko yleisilmailijoita.

Malmin lentokentän toiminta rahoitetaan jäsen- ja kausikorttimaksuin. Ole mukana jatkamassa Malmin lentotoimintaa ja liity jäseneksi!